Location: Santa Clara
(37.3540°N, 121.9540°W)
Time: 01:38:45
(UTC-07:00)

Hubble Space Telescope - Visible Passes

Search period start: 23 September 2023 00:00
Search period end: 03 October 2023 00:00
Orbit: 522 x 525 km, 28.5° (Epoch: 22 September)

Date Brightness Start Highest point End Pass type
(mag) Time Alt. Az. Time Alt. Az. Time Alt. Az.
23 Sep 2.4 05:10:11 22° SSE 05:10:11 22° SSE 05:12:56 10° SE visible
24 Sep 2.8 04:55:43 19° SSE 04:55:43 19° SSE 04:57:27 10° SE visible
24 Sep 2.8 06:32:00 10° SW 06:34:30 16° SSW 06:36:59 10° SSE visible
25 Sep 3.3 04:41:17 13° SE 04:41:17 13° SE 04:41:55 10° SE visible
25 Sep 2.8 06:16:46 10° SW 06:18:59 14° SSW 06:21:11 10° SSE visible
26 Sep 2.9 06:01:56 11° SW 06:03:26 13° SSW 06:05:15 10° S visible
27 Sep 3.0 05:47:36 11° SSW 05:47:53 11° SSW 05:49:05 10° S visible
